Regional Weather Roundup
Issued by NWS

Home | Current Version | Previous Version | Text Only | Print | Product List | Glossary On
Versions: 1 2 3 4 5 6 7 8 9 10 11 12 13 14 15 16 17 18 19 20 21 22 23 24 25 26 27 28 29 30 31 32 33 34 35 36 37 38 39 40 41 42 43 44 45 46 47 48 49 50
000
ASUS43 KBIS 251131
RWRND
NORTH DAKOTA REGIONAL WEATHER ROUNDUP
NATIONAL WEATHER SERVICE EASTERN NORTH DAKOTA/GRAND FORKS ND
500 AM CST SUN FEB 25 2018

  NOTE: "FAIR" INDICATES FEW OR NO CLOUDS BELOW 12,000 FEET WITH NO
  SIGNIFICANT WEATHER AND/OR OBSTRUCTIONS TO VISIBILITY.

NDZ001>003-009>011-017-251200-
...NORTHWEST NORTH DAKOTA...

CITY           SKY/WX    TMP DP  RH WIND       PRES   REMARKS
WILLISTON      FAIR      15  10  80 W13       29.62R WCI   1
MINOT          FAIR      19  13  77 W17       29.52R WCI   4
MINOT AFB      FAIR      17  11  80 W15         N/A  WCI   2
$$

NDZ018>021-031>035-040>046-251200-
...SOUTHWEST NORTH DAKOTA...

CITY           SKY/WX    TMP DP  RH WIND       PRES   REMARKS
BISMARCK       CLOUDY    23  19  85 W17       29.59S WCI   9
DICKINSON      CLOUDY    19  15  84 W21       29.59S WCI   3
GARRISON         N/A     20  15  81 W20       29.54S WCI   4
HETTINGER      FAIR      13   9  84 W20       29.66R WCI  -5
$$

NDZ004>008-012>016-024-026-027-054-251200-
...NORTHEAST NORTH DAKOTA...

CITY           SKY/WX    TMP DP  RH WIND       PRES   REMARKS
GRAND FORKS    CLOUDY    16  13  88 W12       29.48F WCI   3
GRAND FORKS AF FAIR      10   5  79 W10       29.48S WCI  -3
DEVILS LAKE    MOCLDY    15  12  88 W12       29.48S WCI   2
$$

NDZ022-023-025-028>030-036>039-047>053-251200-
...SOUTHEAST NORTH DAKOTA...

CITY           SKY/WX    TMP DP  RH WIND       PRES   REMARKS
JAMESTOWN      CLOUDY    17  13  84 W14       29.51R WCI   3
FARGO          MOCLDY     8   6  92 W13       29.52R WCI  -8
WAHPETON       FAIR       3   0  85 W12       29.57R WCI -13
$$



USA.gov is the U.S. government's official web portal to all federal, state and local government web resources and services.